Weather Roundup
Issued by NWS Chicago, IL

Home | Current Version | Previous Version | Graphics & Text | Print | Product List | Glossary On
Versions: 1 2 3 4 5 6 7 8 9 10 11 12 13 14 15 16 17 18 19 20 21 22 23 24 25 26 27 28 29 30 31 32 33 34 35 36 37 38 39 40 41 42 43 44 45 46 47 48 49 50
000
NZUS59 KLOT 230904
HRRLOT

CHICAGO AREA WEATHER ROUNDUP
NATIONAL WEATHER SERVICE CHICAGO/ROMEOVILLE IL
400 AM CDT SAT SEP 23 2017

NOTE: "FAIR" INDICATES FEW OR NO CLOUDS BELOW 12,000 FEET WITH NO
SIGNIFICANT WEATHER AND/OR OBSTRUCTIONS TO VISIBILITY.

* THESE STATIONS ARE NOT UNDER NWS QUALITY CONTROL. THEY ALSO MAY NOT
  REPORT WEATHER SUCH AS PRECIPITATION OR FOG.

ILZ005-006-012>014-019>023-231000-
NORTHEAST ILLINOIS

CITY           SKY/WX    TMP DP  RH WIND       PRES   REMARKS
OHARE          CLEAR     74  65  73 W3        30.03S
MIDWAY         CLEAR     77  67  71 CALM      30.03S
AURORA         CLEAR     66  64  93 CALM      30.04S
LANSING*       CLEAR     70  68  95 CALM      30.04R
JOLIET*        CLEAR     69  68  98 CALM      30.03S
WAUKEGAN       CLEAR     73  67  81 SW6       30.03R
DUPAGE AIRPORT CLEAR     68  65  90 CALM      30.03S
WHEELING       CLEAR     72  69  90 CALM      30.04S FOG
MORRIS*        CLEAR     69  66  88 CALM      30.02S
LEWIS AIRPORT* CLEAR     69  65  88 S5        30.04S
NORTHERLY ISL    N/A     80  64  58 W5          N/A  HX  82
$$

WIZ051-052-058>065-066-070>072-231000-
SOUTHEAST WISCONSIN

CITY           SKY/WX    TMP DP  RH WIND       PRES   REMARKS
MILWAUKEE      CLEAR     75  67  76 SW7       30.02S
KENOSHA*       CLEAR     70  65  84 CALM      30.04R
RACINE*        CLEAR     73  67  81 S5        30.04R
$$

INZ001>003-010>013-019-020-231000-
NORTHWEST INDIANA

CITY           SKY/WX    TMP DP  RH WIND       PRES   REMARKS
GARY*          CLEAR     67  66  97 CALM      30.05R
MICHIGAN CITY* NOT AVBL
RENSSELAER*    NOT AVBL
VALPARAISO     CLEAR     69  67  93 E3        30.06S FOG
$$

LMZ740>746-231000-
SOUTHERN LAKE MICHIGAN

STATION/POSITION TIME  SKY/WX   TEMP WIND        PRES    VSBY
                                AIR  DIR/SP/G
                 (UTC)          (F)  (DEG/KT/KT) (MB)    (MI)
HARRISON CRIB    0840            83  210/ 12/ 12   N/A
BURNHAM HARBOR   0900            80                N/A
CALUMET HARBOR   0830            77  210/  3/  4 1016.3F
BURNS HARBOR     0840            77  170/  4/  8 1017.3F
MICHIGAN CITY    0840            76  150/  7/  9   N/A
$$

ABBREVIATIONS USED IN REMARKS
   TC - TEMPERATURE IN CELSIUS
  WCI - WIND CHILL INDEX
   HX - HEAT INDEX
  VSB - VISIBILITY
$$




USA.gov is the U.S. government's official web portal to all federal, state and local government web resources and services.